Time,TemperatureF,DewpointF,PressureIn,WindDirection,WindDirectionDegrees,WindSpeedMPH,WindSpeedGustMPH,Humidity,HourlyPrecipIn,Conditions,Clouds,dailyrainin,SoftwareType,DateUTC
2013-08-23 00:01:00,58.3,54.5,29.97,WSW,237,2.0,6.0,87,0.00,,,0.00,meteohub,2013-08-23 07:01:00,
2013-08-23 00:06:00,58.3,54.7,29.97,WSW,239,5.0,7.0,88,0.00,,,0.00,meteohub,2013-08-23 07:06:00,
2013-08-23 00:11:00,58.3,54.7,29.97,SW,229,3.0,7.0,88,0.00,,,0.00,meteohub,2013-08-23 07:11:00,
2013-08-23 00:16:00,58.3,54.7,29.98,SW,234,4.0,7.0,88,0.00,,,0.00,meteohub,2013-08-23 07:16:00,
2013-08-23 00:21:00,58.3,54.7,29.98,SW,230,4.0,6.0,88,0.00,,,0.00,meteohub,2013-08-23 07:21:00,
2013-08-23 00:26:00,58.1,54.5,29.97,SW,224,6.0,7.0,88,0.00,,,0.00,meteohub,2013-08-23 07:26:00,
2013-08-23 00:31:00,58.1,54.5,29.97,SW,226,6.0,8.0,88,0.00,,,0.00,meteohub,2013-08-23 07:31:00,
2013-08-23 00:36:00,58.1,54.5,29.98,SW,233,4.0,8.0,88,0.00,,,0.00,meteohub,2013-08-23 07:36:00,
2013-08-23 00:41:00,58.1,54.9,29.97,SW,233,3.0,8.0,89,0.00,,,0.00,meteohub,2013-08-23 07:41:00,
2013-08-23 00:46:00,58.1,54.9,29.98,WSW,239,5.0,7.0,89,0.00,,,0.00,meteohub,2013-08-23 07:46:00,
2013-08-23 00:51:00,57.9,54.3,29.97,SW,222,5.0,9.0,88,0.00,,,0.00,meteohub,2013-08-23 07:51:00,
2013-08-23 00:56:00,57.9,54.3,29.97,SW,220,5.0,9.0,88,0.00,,,0.00,meteohub,2013-08-23 07:56:00,
2013-08-23 01:01:00,57.9,54.7,29.97,SW,223,6.0,9.0,89,0.00,,,0.00,meteohub,2013-08-23 08:01:00,
2013-08-23 01:06:00,57.7,54.5,29.97,SW,224,2.0,8.0,89,0.00,,,0.00,meteohub,2013-08-23 08:06:00,
2013-08-23 01:11:00,57.7,54.5,29.97,SW,230,3.0,8.0,89,0.00,,,0.00,meteohub,2013-08-23 08:11:00,
2013-08-23 01:16:00,57.7,54.5,29.97,SW,230,2.0,9.0,89,0.00,,,0.00,meteohub,2013-08-23 08:16:00,
2013-08-23 01:21:00,57.7,54.5,29.97,SW,227,5.0,9.0,89,0.00,,,0.00,meteohub,2013-08-23 08:21:00,
2013-08-23 01:26:00,57.7,54.5,29.97,SW,220,5.0,9.0,89,0.00,,,0.00,meteohub,2013-08-23 08:26:00,
2013-08-23 01:31:00,57.9,54.7,29.97,SW,233,7.0,8.0,89,0.00,,,0.00,meteohub,2013-08-23 08:31:00,
2013-08-23 01:36:00,57.9,54.7,29.97,WSW,245,4.0,8.0,89,0.00,,,0.00,meteohub,2013-08-23 08:36:00,
2013-08-23 01:41:00,57.9,54.7,29.97,WSW,242,4.0,8.0,89,0.00,,,0.00,meteohub,2013-08-23 08:41:00,
2013-08-23 01:46:00,58.1,54.9,29.97,WSW,243,2.0,8.0,89,0.00,,,0.00,meteohub,2013-08-23 08:46:00,
2013-08-23 01:51:00,58.1,54.5,29.97,SW,226,6.0,6.0,88,0.00,,,0.00,meteohub,2013-08-23 08:51:00,
2013-08-23 01:56:00,57.9,54.3,29.96,SW,226,2.0,6.0,88,0.00,,,0.00,meteohub,2013-08-23 08:56:00,
2013-08-23 02:02:00,57.9,54.3,29.96,SW,229,5.0,6.0,88,0.00,,,0.00,meteohub,2013-08-23 09:02:00,
2013-08-23 02:07:00,58.1,54.5,29.96,WSW,243,5.0,6.0,88,0.00,,,0.00,meteohub,2013-08-23 09:07:00,
2013-08-23 02:12:00,57.9,54.3,29.96,WSW,240,4.0,7.0,88,0.00,,,0.00,meteohub,2013-08-23 09:12:00,
2013-08-23 02:17:00,57.9,54.3,29.96,WSW,241,3.0,9.0,88,0.00,,,0.00,meteohub,2013-08-23 09:17:00,
2013-08-23 02:22:00,57.9,54.3,29.96,SW,229,3.0,9.0,88,0.00,,,0.00,meteohub,2013-08-23 09:22:00,
2013-08-23 02:27:00,57.9,54.3,29.96,SW,231,3.0,9.0,88,0.00,,,0.00,meteohub,2013-08-23 09:27:00,
2013-08-23 02:32:00,57.9,54.3,29.96,SW,236,7.0,7.0,88,0.00,,,0.00,meteohub,2013-08-23 09:32:00,
2013-08-23 02:37:00,57.9,54.3,29.96,WSW,251,7.0,8.0,88,0.00,,,0.00,meteohub,2013-08-23 09:37:00,
2013-08-23 02:42:00,57.9,54.3,29.96,WSW,243,6.0,8.0,88,0.00,,,0.00,meteohub,2013-08-23 09:42:00,
2013-08-23 02:47:00,57.9,54.3,29.96,WSW,249,6.0,9.0,88,0.00,,,0.00,meteohub,2013-08-23 09:47:00,
2013-08-23 02:52:00,57.9,54.1,29.96,WSW,249,5.0,9.0,87,0.00,,,0.00,meteohub,2013-08-23 09:52:00,
2013-08-23 02:57:00,58.1,54.3,29.96,WSW,249,5.0,9.0,87,0.00,,,0.00,meteohub,2013-08-23 09:57:00,
2013-08-23 03:02:00,58.3,54.5,29.96,WSW,248,3.0,9.0,87,0.00,,,0.00,meteohub,2013-08-23 10:02:00,
2013-08-23 03:07:00,58.3,54.5,29.96,SW,218,1.0,7.0,87,0.00,,,0.00,meteohub,2013-08-23 10:07:00,
2013-08-23 03:12:00,58.3,54.5,29.96,SW,217,2.0,7.0,87,0.00,,,0.00,meteohub,2013-08-23 10:12:00,
2013-08-23 03:17:00,58.3,54.5,29.96,SSW,208,3.0,7.0,87,0.00,,,0.00,meteohub,2013-08-23 10:17:00,
2013-08-23 03:22:00,58.3,54.5,29.96,South,186,3.0,7.0,87,0.00,,,0.00,meteohub,2013-08-23 10:22:00,
2013-08-23 03:27:00,58.3,54.5,29.96,South,181,5.0,8.0,87,0.00,,,0.00,meteohub,2013-08-23 10:27:00,
2013-08-23 03:32:00,58.3,54.5,29.96,SSW,192,3.0,9.0,87,0.00,,,0.00,meteohub,2013-08-23 10:32:00,
2013-08-23 03:37:00,58.3,54.5,29.96,SW,217,2.0,9.0,87,0.00,,,0.00,meteohub,2013-08-23 10:37:00,
2013-08-23 03:42:00,58.3,54.5,29.96,SSW,201,3.0,9.0,87,0.00,,,0.00,meteohub,2013-08-23 10:42:00,
2013-08-23 03:47:00,58.3,54.5,29.95,SW,214,3.0,8.0,87,0.00,,,0.00,meteohub,2013-08-23 10:47:00,
2013-08-23 03:52:00,58.3,54.5,29.95,SW,215,4.0,8.0,87,0.00,,,0.00,meteohub,2013-08-23 10:52:00,
2013-08-23 03:57:00,58.1,54.3,29.95,WSW,243,8.0,9.0,87,0.00,,,0.00,meteohub,2013-08-23 10:57:00,
2013-08-23 04:02:00,58.1,54.3,29.95,SW,228,9.0,11.0,87,0.00,,,0.00,meteohub,2013-08-23 11:02:00,
2013-08-23 04:07:00,57.9,54.3,29.95,SW,226,7.0,12.0,88,0.00,,,0.00,meteohub,2013-08-23 11:07:00,
2013-08-23 04:12:00,57.9,54.3,29.95,SW,235,5.0,12.0,88,0.00,,,0.00,meteohub,2013-08-23 11:12:00,
2013-08-23 04:17:00,57.9,54.3,29.96,SW,226,6.0,12.0,88,0.00,,,0.00,meteohub,2013-08-23 11:17:00,
2013-08-23 04:22:00,57.7,54.0,29.95,SW,224,5.0,12.0,87,0.00,,,0.00,meteohub,2013-08-23 11:22:00,
2013-08-23 04:27:00,57.7,54.1,29.95,SW,226,5.0,12.0,88,0.00,,,0.00,meteohub,2013-08-23 11:27:00,
2013-08-23 04:32:00,57.7,54.1,29.95,SSW,196,7.0,9.0,88,0.00,,,0.00,meteohub,2013-08-23 11:32:00,
2013-08-23 04:37:00,57.7,54.0,29.95,SW,214,5.0,9.0,87,0.00,,,0.00,meteohub,2013-08-23 11:37:00,
2013-08-23 04:42:00,57.7,54.1,29.95,SSW,201,4.0,9.0,88,0.00,,,0.00,meteohub,2013-08-23 11:42:00,
2013-08-23 04:47:00,57.7,54.1,29.95,SW,232,1.0,8.0,88,0.00,,,0.00,meteohub,2013-08-23 11:47:00,
2013-08-23 04:52:00,57.7,54.1,29.95,SSW,206,4.0,8.0,88,0.00,,,0.00,meteohub,2013-08-23 11:52:00,
2013-08-23 04:57:00,57.9,54.1,29.95,SW,217,2.0,8.0,87,0.00,,,0.00,meteohub,2013-08-23 11:57:00,
2013-08-23 05:02:00,57.7,54.0,29.94,SSW,193,4.0,7.0,87,0.00,,,0.00,meteohub,2013-08-23 12:02:00,
2013-08-23 05:08:00,57.7,54.1,29.95,SSW,193,7.0,8.0,88,0.00,,,0.00,meteohub,2013-08-23 12:08:00,
2013-08-23 05:13:00,57.7,54.1,29.94,SSW,192,3.0,9.0,88,0.00,,,0.00,meteohub,2013-08-23 12:13:00,
2013-08-23 05:18:00,57.6,54.0,29.95,SSW,193,7.0,9.0,88,0.00,,,0.00,meteohub,2013-08-23 12:18:00,
2013-08-23 05:23:00,57.6,54.0,29.95,SSW,199,3.0,9.0,88,0.00,,,0.00,meteohub,2013-08-23 12:23:00,
2013-08-23 05:28:00,57.4,53.8,29.95,WSW,241,3.0,9.0,88,0.00,,,0.00,meteohub,2013-08-23 12:28:00,
2013-08-23 05:33:00,57.4,53.8,29.94,SSW,203,5.0,9.0,88,0.00,,,0.00,meteohub,2013-08-23 12:33:00,
2013-08-23 05:38:00,57.4,53.8,29.94,SW,220,7.0,8.0,88,0.00,,,0.00,meteohub,2013-08-23 12:38:00,
2013-08-23 05:43:00,57.2,53.6,29.94,SSW,208,5.0,8.0,88,0.00,,,0.00,meteohub,2013-08-23 12:43:00,
2013-08-23 05:48:00,57.2,53.6,29.94,WSW,237,10.0,10.0,88,0.00,,,0.00,meteohub,2013-08-23 12:48:00,
2013-08-23 05:53:00,57.0,53.4,29.95,WSW,237,7.0,10.0,88,0.00,,,0.00,meteohub,2013-08-23 12:53:00,
2013-08-23 05:58:00,57.0,53.8,29.95,SSW,192,7.0,10.0,89,0.00,,,0.00,meteohub,2013-08-23 12:58:00,
2013-08-23 06:03:00,57.0,53.8,29.95,SSW,197,4.0,10.0,89,0.00,,,0.00,meteohub,2013-08-23 13:03:00,
2013-08-23 06:08:00,56.8,53.2,29.95,SSW,203,7.0,10.0,88,0.00,,,0.00,meteohub,2013-08-23 13:08:00,
2013-08-23 06:13:00,56.8,53.2,29.95,SSW,207,11.0,11.0,88,0.00,,,0.00,meteohub,2013-08-23 13:13:00,
2013-08-23 06:18:00,56.7,53.1,29.95,South,183,5.0,11.0,88,0.00,,,0.00,meteohub,2013-08-23 13:18:00,
2013-08-23 06:23:00,56.7,53.1,29.95,South,180,6.0,11.0,88,0.00,,,0.00,meteohub,2013-08-23 13:23:00,
2013-08-23 06:28:00,56.7,53.4,29.95,South,183,5.0,11.0,89,0.00,,,0.00,meteohub,2013-08-23 13:28:00,
2013-08-23 06:33:00,56.7,53.4,29.95,SSW,195,5.0,11.0,89,0.00,,,0.00,meteohub,2013-08-23 13:33:00,
2013-08-23 06:38:00,56.7,53.4,29.95,South,181,9.0,11.0,89,0.00,,,0.00,meteohub,2013-08-23 13:38:00,
2013-08-23 06:43:00,56.7,53.4,29.96,SW,215,9.0,12.0,89,0.00,,,0.00,meteohub,2013-08-23 13:43:00,
2013-08-23 06:48:00,56.5,53.2,29.96,SW,222,8.0,12.0,89,0.00,,,0.00,meteohub,2013-08-23 13:48:00,
2013-08-23 06:53:00,56.5,53.6,29.96,SSW,213,8.0,12.0,90,0.00,,,0.00,meteohub,2013-08-23 13:53:00,
2013-08-23 06:58:00,56.3,53.4,29.96,SSW,199,6.0,12.0,90,0.00,,,0.00,meteohub,2013-08-23 13:58:00,
2013-08-23 07:03:00,56.5,53.6,29.96,SW,214,10.0,12.0,90,0.00,,,0.00,meteohub,2013-08-23 14:03:00,
2013-08-23 07:08:00,56.5,53.6,29.96,WSW,242,13.0,13.0,90,0.00,,,0.00,meteohub,2013-08-23 14:08:00,
2013-08-23 07:13:00,56.5,53.6,29.96,SSW,204,6.0,11.0,90,0.00,,,0.00,meteohub,2013-08-23 14:13:00,
2013-08-23 07:18:00,56.7,53.8,29.96,SSW,202,7.0,13.0,90,0.00,,,0.00,meteohub,2013-08-23 14:18:00,
2013-08-23 07:23:00,56.5,53.6,29.96,SSW,197,7.0,13.0,90,0.00,,,0.00,meteohub,2013-08-23 14:23:00,
2013-08-23 07:28:00,56.5,53.6,29.96,SSW,202,6.0,11.0,90,0.00,,,0.00,meteohub,2013-08-23 14:28:00,
2013-08-23 07:33:00,56.7,53.8,29.96,South,187,5.0,11.0,90,0.00,,,0.00,meteohub,2013-08-23 14:33:00,
2013-08-23 07:38:00,56.7,53.8,29.96,SSW,200,6.0,10.0,90,0.00,,,0.00,meteohub,2013-08-23 14:38:00,
2013-08-23 07:43:00,56.7,53.8,29.96,SW,214,5.0,8.0,90,0.00,,,0.00,meteohub,2013-08-23 14:43:00,
2013-08-23 07:48:00,56.7,53.8,29.96,SW,235,7.0,11.0,90,0.00,,,0.00,meteohub,2013-08-23 14:48:00,
2013-08-23 07:53:00,56.7,53.4,29.96,SSW,196,6.0,11.0,89,0.00,,,0.00,meteohub,2013-08-23 14:53:00,
2013-08-23 07:58:00,56.8,53.6,29.96,SSW,207,7.0,11.0,89,0.00,,,0.00,meteohub,2013-08-23 14:58:00,
2013-08-23 08:03:00,56.8,53.6,29.96,SW,216,6.0,10.0,89,0.00,,,0.00,meteohub,2013-08-23 15:03:00,
2013-08-23 08:09:00,56.8,53.6,29.96,SW,222,6.0,10.0,89,0.00,,,0.00,meteohub,2013-08-23 15:09:00,
2013-08-23 08:14:00,56.8,53.6,29.96,SSW,197,8.0,10.0,89,0.00,,,0.00,meteohub,2013-08-23 15:14:00,
2013-08-23 08:19:00,56.8,53.6,29.96,SSW,206,7.0,12.0,89,0.00,,,0.00,meteohub,2013-08-23 15:19:00,
2013-08-23 08:24:00,56.8,53.6,29.96,SSW,205,8.0,12.0,89,0.00,,,0.00,meteohub,2013-08-23 15:24:00,
2013-08-23 08:29:00,56.8,53.6,29.96,SSW,213,7.0,12.0,89,0.00,,,0.00,meteohub,2013-08-23 15:29:00,
2013-08-23 08:34:00,56.8,54.0,29.97,SSW,199,7.0,12.0,90,0.00,,,0.00,meteohub,2013-08-23 15:34:00,
2013-08-23 08:39:00,57.0,53.8,29.97,SSW,207,5.0,11.0,89,0.00,,,0.00,meteohub,2013-08-23 15:39:00,
2013-08-23 08:44:00,57.0,53.8,29.97,WSW,239,6.0,10.0,89,0.00,,,0.00,meteohub,2013-08-23 15:44:00,
2013-08-23 08:49:00,57.2,54.0,29.97,SW,222,5.0,10.0,89,0.00,,,0.00,meteohub,2013-08-23 15:49:00,
2013-08-23 08:54:00,57.2,54.0,29.97,SW,215,10.0,10.0,89,0.00,,,0.00,meteohub,2013-08-23 15:54:00,
2013-08-23 08:59:00,57.0,53.8,29.97,SW,223,7.0,10.0,89,0.00,,,0.00,meteohub,2013-08-23 15:59:00,
2013-08-23 09:04:00,57.0,53.8,29.97,SSW,210,7.0,11.0,89,0.00,,,0.00,meteohub,2013-08-23 16:04:00,
2013-08-23 09:09:00,57.0,53.8,29.97,South,191,5.0,11.0,89,0.00,,,0.00,meteohub,2013-08-23 16:09:00,
2013-08-23 09:14:00,57.0,53.8,29.97,SSW,199,7.0,10.0,89,0.00,,,0.00,meteohub,2013-08-23 16:14:00,
2013-08-23 09:19:00,56.8,53.6,29.97,SSW,199,3.0,10.0,89,0.00,,,0.00,meteohub,2013-08-23 16:19:00,
2013-08-23 09:24:00,57.0,54.1,29.97,SSW,204,4.0,9.0,90,0.00,,,0.00,meteohub,2013-08-23 16:24:00,
2013-08-23 09:29:00,57.0,53.8,29.97,SW,227,0.0,9.0,89,0.00,,,0.00,meteohub,2013-08-23 16:29:00,
2013-08-23 09:34:00,57.4,54.1,29.97,South,189,3.0,9.0,89,0.00,,,0.00,meteohub,2013-08-23 16:34:00,
2013-08-23 09:39:00,57.6,54.3,29.97,SSE,166,5.0,9.0,89,0.00,,,0.00,meteohub,2013-08-23 16:39:00,
2013-08-23 09:44:00,57.6,54.3,29.97,SSW,193,5.0,9.0,89,0.00,,,0.00,meteohub,2013-08-23 16:44:00,
2013-08-23 09:49:00,57.6,54.3,29.97,SSE,168,5.0,9.0,89,0.00,,,0.00,meteohub,2013-08-23 16:49:00,
2013-08-23 09:54:00,57.6,54.3,29.97,SSW,196,6.0,11.0,89,0.00,,,0.00,meteohub,2013-08-23 16:54:00,
2013-08-23 09:59:00,57.7,54.5,29.97,South,173,9.0,13.0,89,0.00,,,0.00,meteohub,2013-08-23 16:59:00,
2013-08-23 10:04:00,57.7,54.5,29.97,South,174,3.0,13.0,89,0.00,,,0.00,meteohub,2013-08-23 17:04:00,
2013-08-23 10:09:00,57.7,54.5,29.97,SSE,154,11.0,13.0,89,0.00,,,0.00,meteohub,2013-08-23 17:09:00,
2013-08-23 10:14:00,57.6,54.3,29.97,SSE,160,12.0,14.0,89,0.00,,,0.00,meteohub,2013-08-23 17:14:00,
2013-08-23 10:19:00,57.6,54.3,29.98,SSE,151,12.0,14.0,89,0.00,,,0.00,meteohub,2013-08-23 17:19:00,
2013-08-23 10:24:00,57.6,54.7,29.98,South,191,8.0,14.0,90,0.00,,,0.00,meteohub,2013-08-23 17:24:00,
2013-08-23 10:29:00,57.4,54.5,29.98,SSW,206,7.0,15.0,90,0.00,,,0.00,meteohub,2013-08-23 17:29:00,
2013-08-23 10:34:00,57.4,54.5,29.98,South,191,7.0,17.0,90,0.00,,,0.00,meteohub,2013-08-23 17:34:00,
2013-08-23 10:39:00,57.4,54.5,29.98,SSW,195,8.0,17.0,90,0.00,,,0.00,meteohub,2013-08-23 17:39:00,
2013-08-23 10:44:00,57.4,54.5,29.98,SSE,151,6.0,17.0,90,0.00,,,0.00,meteohub,2013-08-23 17:44:00,
2013-08-23 10:49:00,57.7,54.9,29.97,SSW,202,9.0,17.0,90,0.00,,,0.00,meteohub,2013-08-23 17:49:00,
2013-08-23 10:54:00,57.9,54.7,29.97,South,172,7.0,16.0,89,0.00,,,0.00,meteohub,2013-08-23 17:54:00,
2013-08-23 10:59:00,57.9,54.7,29.97,SSW,203,8.0,15.0,89,0.00,,,0.00,meteohub,2013-08-23 17:59:00,
2013-08-23 11:04:00,57.7,54.5,29.97,SSW,204,8.0,15.0,89,0.00,,,0.00,meteohub,2013-08-23 18:04:00,
2013-08-23 11:09:00,57.9,54.3,29.97,SSW,204,7.0,15.0,88,0.00,,,0.00,meteohub,2013-08-23 18:09:00,
2013-08-23 11:14:00,58.5,54.9,29.97,SSW,198,8.0,14.0,88,0.00,,,0.00,meteohub,2013-08-23 18:14:00,
2013-08-23 11:20:00,58.6,55.0,29.97,SW,232,11.0,14.0,88,0.00,,,0.00,meteohub,2013-08-23 18:20:00,
2013-08-23 11:25:00,58.8,55.2,29.97,South,179,13.0,14.0,88,0.00,,,0.00,meteohub,2013-08-23 18:25:00,
2013-08-23 11:30:00,59.4,55.4,29.97,SSE,162,8.0,14.0,87,0.00,,,0.00,meteohub,2013-08-23 18:30:00,
2013-08-23 11:35:00,59.5,55.6,29.96,South,176,10.0,14.0,87,0.00,,,0.00,meteohub,2013-08-23 18:35:00,
2013-08-23 11:40:00,59.2,55.0,29.97,SSE,160,9.0,14.0,86,0.00,,,0.00,meteohub,2013-08-23 18:40:00,
2013-08-23 11:45:00,58.8,55.0,29.97,SSW,210,10.0,14.0,87,0.00,,,0.00,meteohub,2013-08-23 18:45:00,
2013-08-23 11:50:00,58.8,55.0,29.96,SSW,210,12.0,15.0,87,0.00,,,0.00,meteohub,2013-08-23 18:50:00,
2013-08-23 11:55:00,59.0,55.4,29.96,SSW,201,9.0,16.0,88,0.00,,,0.00,meteohub,2013-08-23 18:55:00,
2013-08-23 12:00:00,59.0,55.2,29.96,SW,225,10.0,17.0,87,0.00,,,0.00,meteohub,2013-08-23 19:00:00,
2013-08-23 12:05:00,58.8,55.0,29.96,SSW,200,7.0,18.0,87,0.00,,,0.00,meteohub,2013-08-23 19:05:00,
2013-08-23 12:10:00,59.2,55.4,29.96,SSW,209,7.0,18.0,87,0.00,,,0.00,meteohub,2013-08-23 19:10:00,
2013-08-23 12:15:00,59.0,54.9,29.96,SW,214,14.0,18.0,86,0.00,,,0.00,meteohub,2013-08-23 19:15:00,
2013-08-23 12:20:00,59.4,55.4,29.96,SSW,211,7.0,17.0,87,0.00,,,0.00,meteohub,2013-08-23 19:20:00,
2013-08-23 12:25:00,59.9,55.8,29.96,SSW,201,12.0,19.0,86,0.00,,,0.00,meteohub,2013-08-23 19:25:00,
2013-08-23 12:30:00,59.4,55.2,29.96,South,190,14.0,19.0,86,0.00,,,0.00,meteohub,2013-08-23 19:30:00,
2013-08-23 12:35:00,59.4,55.2,29.96,SSW,210,11.0,18.0,86,0.00,,,0.00,meteohub,2013-08-23 19:35:00,
2013-08-23 12:40:00,59.2,55.0,29.96,SW,214,16.0,18.0,86,0.00,,,0.00,meteohub,2013-08-23 19:40:00,
2013-08-23 12:45:00,59.2,55.0,29.95,SSW,201,10.0,18.0,86,0.00,,,0.00,meteohub,2013-08-23 19:45:00,
2013-08-23 12:50:00,58.8,55.0,29.95,SSW,196,10.0,18.0,87,0.00,,,0.00,meteohub,2013-08-23 19:50:00,
2013-08-23 12:55:00,58.8,55.0,29.95,SSW,207,10.0,18.0,87,0.00,,,0.00,meteohub,2013-08-23 19:55:00,
2013-08-23 13:00:00,59.0,55.2,29.95,SW,220,9.0,19.0,87,0.00,,,0.00,meteohub,2013-08-23 20:00:00,
2013-08-23 13:05:00,59.2,55.4,29.95,SSW,204,14.0,19.0,87,0.00,,,0.00,meteohub,2013-08-23 20:05:00,
2013-08-23 13:10:00,59.0,54.9,29.95,SW,223,13.0,19.0,86,0.00,,,0.00,meteohub,2013-08-23 20:10:00,
2013-08-23 13:15:00,59.2,55.4,29.95,SSW,195,13.0,19.0,87,0.00,,,0.00,meteohub,2013-08-23 20:15:00,
2013-08-23 13:20:00,59.4,55.4,29.94,SSW,193,9.0,19.0,87,0.00,,,0.00,meteohub,2013-08-23 20:20:00,
2013-08-23 13:25:00,59.5,55.4,29.94,SSW,210,8.0,18.0,86,0.00,,,0.00,meteohub,2013-08-23 20:25:00,
2013-08-23 13:30:00,60.1,55.2,29.94,SW,217,14.0,18.0,84,0.00,,,0.00,meteohub,2013-08-23 20:30:00,
2013-08-23 13:35:00,59.7,55.6,29.94,South,181,13.0,18.0,86,0.00,,,0.00,meteohub,2013-08-23 20:35:00,
2013-08-23 13:40:00,59.7,55.2,29.94,SSW,201,11.0,19.0,85,0.00,,,0.00,meteohub,2013-08-23 20:40:00,
2013-08-23 13:45:00,60.3,56.1,29.94,SW,216,12.0,19.0,86,0.00,,,0.00,meteohub,2013-08-23 20:45:00,
2013-08-23 13:50:00,60.3,55.8,29.94,SW,217,10.0,19.0,85,0.00,,,0.00,meteohub,2013-08-23 20:50:00,
2013-08-23 13:55:00,60.1,55.6,29.94,SW,220,14.0,19.0,85,0.00,,,0.00,meteohub,2013-08-23 20:55:00,
2013-08-23 14:00:00,59.7,55.6,29.94,SSW,197,12.0,19.0,86,0.00,,,0.00,meteohub,2013-08-23 21:00:00,
2013-08-23 14:05:00,59.7,55.6,29.94,SSW,206,12.0,21.0,86,0.00,,,0.00,meteohub,2013-08-23 21:05:00,
2013-08-23 14:10:00,59.5,55.6,29.94,SSW,208,14.0,21.0,87,0.00,,,0.00,meteohub,2013-08-23 21:10:00,
2013-08-23 14:15:00,59.5,55.4,29.94,SW,214,17.0,21.0,86,0.00,,,0.00,meteohub,2013-08-23 21:15:00,
2013-08-23 14:21:00,59.2,55.4,29.94,SSW,199,15.0,21.0,87,0.00,,,0.00,meteohub,2013-08-23 21:21:00,
2013-08-23 14:26:00,58.6,55.0,29.94,South,180,14.0,20.0,88,0.00,,,0.00,meteohub,2013-08-23 21:26:00,
2013-08-23 14:31:00,59.2,55.4,29.93,SSW,206,10.0,20.0,87,0.00,,,0.00,meteohub,2013-08-23 21:31:00,
2013-08-23 14:36:00,58.8,55.0,29.93,South,191,15.0,22.0,87,0.00,,,0.00,meteohub,2013-08-23 21:36:00,
2013-08-23 14:41:00,59.0,55.2,29.93,SW,235,17.0,22.0,87,0.00,,,0.00,meteohub,2013-08-23 21:41:00,
2013-08-23 14:46:00,58.6,54.5,29.93,SSW,201,16.0,22.0,86,0.00,,,0.00,meteohub,2013-08-23 21:46:00,
2013-08-23 14:51:00,58.8,55.0,29.92,SSE,166,15.0,24.0,87,0.00,,,0.00,meteohub,2013-08-23 21:51:00,
2013-08-23 14:56:00,58.8,55.2,29.92,SSW,206,17.0,24.0,88,0.00,,,0.00,meteohub,2013-08-23 21:56:00,
2013-08-23 15:01:00,59.2,55.4,29.92,SW,217,15.0,24.0,87,0.00,,,0.00,meteohub,2013-08-23 22:01:00,
2013-08-23 15:06:00,58.8,55.2,29.92,SSW,201,16.0,23.0,88,0.00,,,0.00,meteohub,2013-08-23 22:06:00,
2013-08-23 15:11:00,58.8,55.2,29.92,SSW,193,12.0,23.0,88,0.00,,,0.00,meteohub,2013-08-23 22:11:00,
2013-08-23 15:16:00,59.4,55.4,29.91,SW,221,19.0,23.0,87,0.00,,,0.00,meteohub,2013-08-23 22:16:00,
2013-08-23 15:21:00,58.8,55.2,29.91,SSW,204,11.0,22.0,88,0.00,,,0.00,meteohub,2013-08-23 22:21:00,
2013-08-23 15:26:00,59.2,55.6,29.91,SSW,201,11.0,22.0,88,0.00,,,0.00,meteohub,2013-08-23 22:26:00,
2013-08-23 15:31:00,59.5,55.6,29.91,SSW,204,17.0,22.0,87,0.00,,,0.00,meteohub,2013-08-23 22:31:00,
2013-08-23 15:36:00,59.5,55.6,29.91,SSW,211,13.0,22.0,87,0.00,,,0.00,meteohub,2013-08-23 22:36:00,
2013-08-23 15:41:00,60.1,56.1,29.91,SSW,193,9.0,21.0,87,0.00,,,0.00,meteohub,2013-08-23 22:41:00,
2013-08-23 15:46:00,60.1,55.6,29.91,SSW,200,19.0,22.0,85,0.00,,,0.00,meteohub,2013-08-23 22:46:00,
2013-08-23 15:51:00,60.1,56.1,29.91,SSE,168,18.0,22.0,87,0.00,,,0.00,meteohub,2013-08-23 22:51:00,
2013-08-23 15:56:00,60.1,55.9,29.90,SSW,203,12.0,22.0,86,0.00,,,0.00,meteohub,2013-08-23 22:56:00,
2013-08-23 16:01:00,59.9,55.8,29.90,SSW,210,14.0,22.0,86,0.00,,,0.00,meteohub,2013-08-23 23:01:00,
2013-08-23 16:06:00,59.7,55.6,29.90,South,190,18.0,24.0,86,0.00,,,0.00,meteohub,2013-08-23 23:06:00,
2013-08-23 16:11:00,59.5,55.6,29.90,South,191,14.0,24.0,87,0.00,,,0.00,meteohub,2013-08-23 23:11:00,
2013-08-23 16:16:00,59.4,55.8,29.90,SSW,201,11.0,22.0,88,0.00,,,0.00,meteohub,2013-08-23 23:16:00,
2013-08-23 16:21:00,59.4,55.4,29.90,South,191,10.0,22.0,87,0.00,,,0.00,meteohub,2013-08-23 23:21:00,
2013-08-23 16:26:00,59.9,55.9,29.89,SSW,194,14.0,22.0,87,0.00,,,0.00,meteohub,2013-08-23 23:26:00,
2013-08-23 16:31:00,60.1,56.5,29.89,SSW,208,15.0,22.0,88,0.00,,,0.00,meteohub,2013-08-23 23:31:00,
2013-08-23 16:36:00,59.7,55.8,29.89,South,189,13.0,21.0,87,0.00,,,0.00,meteohub,2013-08-23 23:36:00,
2013-08-23 16:41:00,59.5,55.6,29.89,South,177,15.0,21.0,87,0.00,,,0.00,meteohub,2013-08-23 23:41:00,
2013-08-23 16:46:00,59.4,55.8,29.89,SSE,158,13.0,21.0,88,0.00,,,0.00,meteohub,2013-08-23 23:46:00,
2013-08-23 16:51:00,59.5,55.6,29.89,South,177,13.0,21.0,87,0.00,,,0.00,meteohub,2013-08-23 23:51:00,
2013-08-23 16:56:00,59.5,55.6,29.89,SSE,164,12.0,21.0,87,0.00,,,0.00,meteohub,2013-08-23 23:56:00,
2013-08-23 17:01:00,59.5,55.9,29.88,South,185,20.0,21.0,88,0.00,,,0.00,meteohub,2013-08-24 00:01:00,
2013-08-23 17:06:00,59.7,55.8,29.88,South,172,12.0,21.0,87,0.00,,,0.00,meteohub,2013-08-24 00:06:00,
2013-08-23 17:11:00,60.3,56.3,29.88,South,186,7.0,21.0,87,0.00,,,0.00,meteohub,2013-08-24 00:11:00,
2013-08-23 17:16:00,60.4,56.3,29.88,SSW,194,12.0,21.0,86,0.00,,,0.00,meteohub,2013-08-24 00:16:00,
2013-08-23 17:22:00,60.1,55.9,29.88,South,172,17.0,20.0,86,0.00,,,0.00,meteohub,2013-08-24 00:22:00,
2013-08-23 17:27:00,59.9,55.9,29.88,SSW,195,15.0,20.0,87,0.00,,,0.00,meteohub,2013-08-24 00:27:00,
2013-08-23 17:32:00,60.1,56.1,29.88,SSW,209,11.0,20.0,87,0.00,,,0.00,meteohub,2013-08-24 00:32:00,
2013-08-23 17:37:00,60.4,56.5,29.88,SSE,168,13.0,20.0,87,0.00,,,0.00,meteohub,2013-08-24 00:37:00,
2013-08-23 17:42:00,60.3,56.1,29.88,South,179,12.0,20.0,86,0.00,,,0.00,meteohub,2013-08-24 00:42:00,
2013-08-23 17:47:00,60.3,56.3,29.87,South,191,15.0,21.0,87,0.00,,,0.00,meteohub,2013-08-24 00:47:00,
2013-08-23 17:52:00,60.3,56.1,29.88,SSW,197,9.0,21.0,86,0.00,,,0.00,meteohub,2013-08-24 00:52:00,
2013-08-23 17:57:00,60.3,56.3,29.87,SSE,162,12.0,20.0,87,0.00,,,0.00,meteohub,2013-08-24 00:57:00,
2013-08-23 18:02:00,60.1,56.5,29.87,South,177,11.0,21.0,88,0.00,,,0.00,meteohub,2013-08-24 01:02:00,
2013-08-23 18:07:00,60.3,56.3,29.87,South,186,12.0,21.0,87,0.00,,,0.00,meteohub,2013-08-24 01:07:00,
2013-08-23 18:12:00,60.3,56.3,29.87,North,359,12.0,21.0,87,0.00,,,0.00,meteohub,2013-08-24 01:12:00,
2013-08-23 18:17:00,60.3,56.7,29.87,SSE,163,10.0,19.0,88,0.00,,,0.00,meteohub,2013-08-24 01:17:00,
2013-08-23 18:22:00,60.1,56.1,29.87,South,179,8.0,19.0,87,0.00,,,0.00,meteohub,2013-08-24 01:22:00,
2013-08-23 18:27:00,60.1,56.5,29.87,SSE,154,15.0,18.0,88,0.00,,,0.00,meteohub,2013-08-24 01:27:00,
2013-08-23 18:32:00,59.9,56.3,29.86,South,175,7.0,20.0,88,0.00,,,0.00,meteohub,2013-08-24 01:32:00,
2013-08-23 18:37:00,59.9,56.3,29.86,SSW,201,12.0,20.0,88,0.00,,,0.00,meteohub,2013-08-24 01:37:00,
2013-08-23 18:42:00,59.9,56.3,29.86,South,176,10.0,20.0,88,0.00,,,0.00,meteohub,2013-08-24 01:42:00,
2013-08-23 18:47:00,60.1,56.5,29.86,South,170,8.0,18.0,88,0.00,,,0.00,meteohub,2013-08-24 01:47:00,
2013-08-23 18:52:00,60.3,56.3,29.86,SSW,192,11.0,18.0,87,0.00,,,0.00,meteohub,2013-08-24 01:52:00,
2013-08-23 18:57:00,60.1,56.1,29.86,South,181,7.0,18.0,87,0.00,,,0.00,meteohub,2013-08-24 01:57:00,
2013-08-23 19:02:00,60.1,56.1,29.86,SSW,195,15.0,17.0,87,0.00,,,0.00,meteohub,2013-08-24 02:02:00,
2013-08-23 19:07:00,60.1,56.1,29.86,SSE,159,10.0,17.0,87,0.00,,,0.00,meteohub,2013-08-24 02:07:00,
2013-08-23 19:12:00,60.1,56.1,29.86,South,187,11.0,18.0,87,0.00,,,0.00,meteohub,2013-08-24 02:12:00,
2013-08-23 19:17:00,59.9,55.9,29.86,South,184,9.0,18.0,87,0.00,,,0.00,meteohub,2013-08-24 02:17:00,
2013-08-23 19:22:00,59.7,55.8,29.85,SSW,198,8.0,18.0,87,0.00,,,0.00,meteohub,2013-08-24 02:22:00,
2013-08-23 19:27:00,59.9,55.9,29.85,SSE,152,8.0,20.0,87,0.00,,,0.00,meteohub,2013-08-24 02:27:00,
2013-08-23 19:32:00,59.7,55.8,29.85,SSE,167,13.0,20.0,87,0.00,,,0.00,meteohub,2013-08-24 02:32:00,
2013-08-23 19:37:00,59.7,55.8,29.85,South,180,12.0,20.0,87,0.00,,,0.00,meteohub,2013-08-24 02:37:00,
2013-08-23 19:42:00,59.5,55.6,29.85,South,181,11.0,18.0,87,0.00,,,0.00,meteohub,2013-08-24 02:42:00,
2013-08-23 19:47:00,59.5,55.9,29.86,South,186,8.0,18.0,88,0.00,,,0.00,meteohub,2013-08-24 02:47:00,
2013-08-23 19:52:00,59.5,55.9,29.85,South,170,12.0,19.0,88,0.00,,,0.00,meteohub,2013-08-24 02:52:00,
2013-08-23 19:57:00,59.4,55.8,29.85,SSE,157,9.0,20.0,88,0.00,,,0.00,meteohub,2013-08-24 02:57:00,
2013-08-23 20:02:00,59.5,55.9,29.86,SSE,158,17.0,20.0,88,0.00,,,0.00,meteohub,2013-08-24 03:02:00,
2013-08-23 20:07:00,59.5,55.9,29.86,SSE,157,14.0,20.0,88,0.00,,,0.00,meteohub,2013-08-24 03:07:00,
2013-08-23 20:12:00,59.5,55.9,29.86,South,185,8.0,18.0,88,0.00,,,0.00,meteohub,2013-08-24 03:12:00,
2013-08-23 20:17:00,59.5,55.9,29.86,South,182,11.0,18.0,88,0.00,,,0.00,meteohub,2013-08-24 03:17:00,
2013-08-23 20:22:00,59.4,55.8,29.86,South,170,8.0,18.0,88,0.00,,,0.00,meteohub,2013-08-24 03:22:00,
2013-08-23 20:28:00,59.2,55.6,29.86,SSE,167,7.0,18.0,88,0.00,,,0.00,meteohub,2013-08-24 03:28:00,
2013-08-23 20:33:00,59.4,55.8,29.86,SSE,168,10.0,17.0,88,0.00,,,0.00,meteohub,2013-08-24 03:33:00,
2013-08-23 20:38:00,59.2,55.6,29.86,South,170,11.0,16.0,88,0.00,,,0.00,meteohub,2013-08-24 03:38:00,
2013-08-23 20:43:00,59.2,55.6,29.86,SSE,162,11.0,17.0,88,0.00,,,0.00,meteohub,2013-08-24 03:43:00,
2013-08-23 20:48:00,59.2,55.6,29.86,South,185,11.0,17.0,88,0.00,,,0.00,meteohub,2013-08-24 03:48:00,
2013-08-23 20:53:00,59.2,55.6,29.86,SSE,166,4.0,15.0,88,0.00,,,0.00,meteohub,2013-08-24 03:53:00,
2013-08-23 20:58:00,59.4,55.8,29.86,SSE,168,7.0,15.0,88,0.00,,,0.00,meteohub,2013-08-24 03:58:00,
2013-08-23 21:01:00,59.5,56.3,29.86,SSE,164,8.0,13.0,89,0.00,,,0.00,meteohub,2013-08-24 04:01:00,
2013-08-23 21:02:00,59.5,56.3,29.86,SSE,165,9.0,13.0,89,0.00,,,0.00,meteohub,2013-08-24 04:02:00,
2013-08-23 21:04:00,59.7,56.1,29.86,SSE,150,9.0,13.0,88,0.00,,,0.00,meteohub,2013-08-24 04:04:00,
2013-08-23 21:09:00,59.7,56.1,29.87,SSE,154,10.0,13.0,88,0.00,,,0.00,meteohub,2013-08-24 04:09:00,
2013-08-23 21:14:00,59.7,56.1,29.87,SE,145,9.0,13.0,88,0.00,,,0.00,meteohub,2013-08-24 04:14:00,
2013-08-23 21:19:00,59.7,56.1,29.87,SSE,162,7.0,13.0,88,0.00,,,0.00,meteohub,2013-08-24 04:19:00,
2013-08-23 21:24:00,59.5,55.9,29.87,South,171,10.0,13.0,88,0.00,,,0.00,meteohub,2013-08-24 04:24:00,
2013-08-23 21:29:00,59.4,55.8,29.87,South,191,8.0,13.0,88,0.00,,,0.00,meteohub,2013-08-24 04:29:00,
2013-08-23 21:34:00,59.4,55.8,29.87,SSE,159,6.0,15.0,88,0.00,,,0.00,meteohub,2013-08-24 04:34:00,
2013-08-23 21:39:00,59.4,55.8,29.88,SSE,166,10.0,15.0,88,0.00,,,0.00,meteohub,2013-08-24 04:39:00,
2013-08-23 21:45:00,59.4,55.8,29.88,SE,125,10.0,15.0,88,0.00,,,0.00,meteohub,2013-08-24 04:45:00,
2013-08-23 21:50:00,59.4,55.8,29.88,SSE,159,10.0,13.0,88,0.00,,,0.00,meteohub,2013-08-24 04:50:00,
2013-08-23 21:55:00,59.2,55.9,29.87,SSE,160,12.0,14.0,89,0.00,,,0.00,meteohub,2013-08-24 04:55:00,
2013-08-23 22:00:00,59.2,55.9,29.88,South,188,11.0,14.0,89,0.00,,,0.00,meteohub,2013-08-24 05:00:00,
2013-08-23 22:05:00,59.2,55.9,29.87,SSE,154,11.0,15.0,89,0.00,,,0.00,meteohub,2013-08-24 05:05:00,
2013-08-23 22:10:00,59.0,55.8,29.88,SSW,197,7.0,15.0,89,0.00,,,0.00,meteohub,2013-08-24 05:10:00,
2013-08-23 22:15:00,59.0,55.8,29.88,South,180,15.0,15.0,89,0.00,,,0.00,meteohub,2013-08-24 05:15:00,
2013-08-23 22:20:00,59.0,55.8,29.88,SSW,194,7.0,15.0,89,0.00,,,0.00,meteohub,2013-08-24 05:20:00,
2013-08-23 22:25:00,59.2,55.9,29.88,South,180,10.0,17.0,89,0.00,,,0.00,meteohub,2013-08-24 05:25:00,
2013-08-23 22:30:00,59.2,55.9,29.88,South,179,6.0,17.0,89,0.00,,,0.00,meteohub,2013-08-24 05:30:00,
2013-08-23 22:35:00,59.2,55.9,29.88,SSE,151,9.0,17.0,89,0.00,,,0.00,meteohub,2013-08-24 05:35:00,
2013-08-23 22:40:00,59.4,56.1,29.88,SE,125,8.0,15.0,89,0.00,,,0.00,meteohub,2013-08-24 05:40:00,
2013-08-23 22:45:00,59.2,55.6,29.88,SSE,147,7.0,16.0,88,0.00,,,0.00,meteohub,2013-08-24 05:45:00,
2013-08-23 22:50:00,59.0,55.8,29.88,SE,143,5.0,16.0,89,0.00,,,0.00,meteohub,2013-08-24 05:50:00,
2013-08-23 22:55:00,59.0,55.8,29.88,SSE,157,8.0,16.0,89,0.00,,,0.00,meteohub,2013-08-24 05:55:00,
2013-08-23 23:00:00,59.0,55.8,29.88,South,171,7.0,16.0,89,0.00,,,0.00,meteohub,2013-08-24 06:00:00,
2013-08-23 23:05:00,59.2,55.9,29.88,South,181,9.0,16.0,89,0.00,,,0.00,meteohub,2013-08-24 06:05:00,
2013-08-23 23:10:00,59.2,55.9,29.88,SSE,158,7.0,14.0,89,0.00,,,0.00,meteohub,2013-08-24 06:10:00,
2013-08-23 23:15:00,59.2,55.9,29.88,SSE,150,7.0,13.0,89,0.00,,,0.00,meteohub,2013-08-24 06:15:00,
2013-08-23 23:20:00,58.8,55.6,29.88,SE,145,10.0,14.0,89,0.00,,,0.00,meteohub,2013-08-24 06:20:00,
2013-08-23 23:25:00,58.6,55.4,29.88,SSE,168,12.0,14.0,89,0.00,,,0.00,meteohub,2013-08-24 06:25:00,
2013-08-23 23:30:00,58.6,55.4,29.88,SE,145,11.0,14.0,89,0.00,,,0.00,meteohub,2013-08-24 06:30:00,
2013-08-23 23:35:00,58.6,55.8,29.88,South,183,8.0,14.0,90,0.00,,,0.00,meteohub,2013-08-24 06:35:00,
2013-08-23 23:40:00,58.6,55.8,29.88,SSE,162,8.0,15.0,90,0.00,,,0.00,meteohub,2013-08-24 06:40:00,
2013-08-23 23:45:00,58.6,55.8,29.88,SE,144,11.0,15.0,90,0.00,,,0.00,meteohub,2013-08-24 06:45:00,
2013-08-23 23:50:00,58.6,55.8,29.88,SE,142,12.0,14.0,90,0.00,,,0.00,meteohub,2013-08-24 06:50:00,
2013-08-23 23:55:00,58.5,55.6,29.88,SE,144,8.0,16.0,90,0.00,,,0.00,meteohub,2013-08-24 06:55:00,